Back to catalog

CZ-6A DEB

AliveSSO
NORAD 54341·DEBRIS·🇨🇳 China

Launched Nov 11, 2022 from Taiyuan Satellite Launch Center

Loading…

Next Passes (next 24 hours)

TLE

FreshSource: Space-Track

Epoch: Sep 13, 2026, 18:14 UTC

1 54341U 22151CL  26256.75989474  .00000744  00000-0  34001-3 0  9998
2 54341  98.7662 276.0549 0047985  87.3435 273.3235 14.23847201198525

Track CZ-6A DEB in real time with AllMySat

Download on the App Store